Change the Weather History Date:

Saturday, August 4, 2012

  Actual Average (KMTJ) Record (KMTJ)
Temperature  
Mean Temperature 78 °F 73 °F  
Max Temperature 97 °F 88 °F 93 °F (2008)
Min Temperature 60 °F 58 °F 51 °F (1998)
Degree Days  
Heating Degree Days 0 0  
Month to date heating degree days 0  
Since 1 June heating degree days 39  
Since 1 July heating degree days 0  
Cooling Degree Days 14 8  
Month to date cooling degree days 32  
Year to date cooling degree days 454  
Since 1 June cooling degree days 437  
Growing Degree Days 28 (Base 50)    
Moisture  
Dew Point 34 °F    
Average Humidity 23    
Maximum Humidity 48    
Minimum Humidity 6    
Precipitation  
Precipitation 0.00 in 0.04 in 0.39 in (2010)
Month to date precipitation 0.15  
Year to date precipitation 6.22  
Sea Level Pressure  
Sea Level Pressure 30.12 in    
Wind  
Wind Speed 5 mph ()    
Max Wind Speed 14 mph    
Max Gust Speed 20 mph    
Visibility 8.1 miles    
Events      
T = Trace of Precipitation, MM = Missing Value Source: Averaged Metar Reports

Daily Weather History Graph

Daily Weather History Graph

Search for Another Location

Airport or City:

Trip Planner

Search our weather history database for the weather conditions in past years. The results will help you decide how hot, cold, wet, or windy it might be!

Date:

Astronomy

Aug. 04, 2012 Rise Set
Actual Time 6:16 AM MDT 8:19 PM MDT
Civil Twilight 5:47 AM MDT 8:48 PM MDT
Nautical Twilight 5:11 AM MDT 9:24 PM MDT
Astronomical Twilight 4:32 AM MDT 10:02 PM MDT
Moon 9:32 PM MDT (8/4) 9:04 AM MDT (8/4)
Length of Visible Light 15h 01m
Length of Day
14h 02m
Waning Gibbous, 92% of the Moon is Illuminated
Aug 4
Waning Gibbous
Aug 9
Last Quarter
Aug 17
New
Aug 24
First Quarter
Aug 31
Full

Hourly Weather History & Observations

Time (MDT) Temp. Dew Point Humidity Pressure Visibility Wind Dir Wind Speed Gust Speed Precip Events Conditions
12:15 AM 70.9 °F 40.8 °F 34% 30.05 in 10.0 mi NNE 5.8 mph - N/A   Clear
12:35 AM 69.8 °F 38.7 °F 32% 30.05 in 7.0 mi West 4.6 mph - N/A   Clear
12:55 AM 67.1 °F 45.5 °F 46% 30.07 in 7.0 mi ESE 6.9 mph - N/A   Clear
1:15 AM 67.3 °F 41.5 °F 39% 30.06 in 7.0 mi NNE 9.2 mph - N/A   Clear
1:35 AM 68.5 °F 37.4 °F 32% 30.07 in 10.0 mi North 6.9 mph - N/A   Clear
1:55 AM 67.3 °F 36.5 °F 32% 30.06 in 7.0 mi NE 8.1 mph - N/A   Clear
2:35 AM 67.3 °F 33.6 °F 29% 30.07 in 7.0 mi NE 10.4 mph - N/A   Clear
2:55 AM 67.5 °F 33.1 °F 28% 30.07 in 7.0 mi NE 8.1 mph - N/A   Clear
3:15 AM 65.3 °F 34.7 °F 32% 30.07 in 10.0 mi NNE 8.1 mph - N/A   Clear
3:35 AM 64.6 °F 34.5 °F 33% 30.08 in 10.0 mi NNE 9.2 mph - N/A   Clear
3:55 AM 64.6 °F 33.8 °F 32% 30.08 in 7.0 mi NNE 6.9 mph - N/A   Clear
4:15 AM 63.9 °F 34.7 °F 34% 30.09 in 7.0 mi ESE 3.5 mph - N/A   Clear
4:35 AM 62.4 °F 32.4 °F 32% 30.10 in 7.0 mi ENE 3.5 mph - N/A   Clear
4:55 AM 61.9 °F 32.0 °F 33% 30.11 in 7.0 mi East 4.6 mph - N/A   Clear
5:15 AM 60.4 °F 32.9 °F 36% 30.11 in 7.0 mi Calm Calm - N/A   Clear
5:35 AM 61.3 °F 33.3 °F 35% 30.12 in 5.0 mi ENE 10.4 mph - N/A   Clear
5:55 AM 62.6 °F 36.0 °F 37% 30.12 in 7.0 mi NE 6.9 mph - N/A   Clear
6:15 AM 61.5 °F 35.6 °F 38% 30.13 in 7.0 mi Calm Calm - N/A   Clear
6:35 AM 60.8 °F 36.3 °F 40% 30.14 in 7.0 mi ENE 3.5 mph - N/A   Clear
6:55 AM 61.7 °F 37.8 °F 41% 30.15 in 7.0 mi Calm Calm - N/A   Clear
7:15 AM 61.0 °F 39.2 °F 45% 30.15 in 7.0 mi Calm Calm - N/A   Clear
7:35 AM 61.0 °F 41.2 °F 48% 30.16 in 10.0 mi NNE 4.6 mph - N/A   Clear
7:55 AM 64.0 °F 38.3 °F 39% 30.17 in 7.0 mi NE 6.9 mph - N/A   Clear
8:15 AM 66.4 °F 38.1 °F 35% 30.18 in 5.0 mi NE 6.9 mph - N/A   Clear
8:35 AM 68.4 °F 38.1 °F 33% 30.18 in 7.0 mi ENE 6.9 mph - N/A   Clear
8:55 AM 70.7 °F 38.7 °F 31% 30.18 in 7.0 mi ENE 5.8 mph - N/A   Clear
9:15 AM 72.9 °F 39.2 °F 30% 30.18 in 7.0 mi Calm Calm - N/A   Clear
9:35 AM 74.3 °F 39.2 °F 28% 30.18 in 7.0 mi Calm Calm - N/A   Clear
9:55 AM 75.7 °F 38.8 °F 26% 30.18 in 7.0 mi Calm Calm - N/A   Clear
10:15 AM 78.4 °F 39.2 °F 24% 30.18 in 7.0 mi Calm Calm - N/A   Clear
10:35 AM 80.2 °F 39.4 °F 23% 30.17 in 10.0 mi SW 3.5 mph - N/A   Clear
10:55 AM 81.3 °F 39.2 °F 22% 30.17 in 7.0 mi SSE 3.5 mph - N/A   Clear
11:15 AM 82.4 °F 41.4 °F 23% 30.17 in 7.0 mi Calm Calm - N/A   Clear
11:35 AM 84.2 °F 40.5 °F 21% 30.16 in 7.0 mi SSE 4.6 mph - N/A   Clear
11:55 AM 84.7 °F 41.4 °F 22% 30.16 in 7.0 mi Calm Calm - N/A   Clear
12:15 PM 86.4 °F 38.7 °F 18% 30.16 in 10.0 mi Calm Calm - N/A   Clear
12:35 PM 86.9 °F 35.2 °F 16% 30.15 in 10.0 mi SW 5.8 mph - N/A   Clear
12:55 PM 90.0 °F 30.6 °F 12% 30.15 in 10.0 mi SSW 6.9 mph - N/A   Clear
1:15 PM 90.0 °F 34.0 °F 14% 30.15 in 10.0 mi South 5.8 mph - N/A   Clear
1:35 PM 91.0 °F 33.6 °F 13% 30.14 in 10.0 mi SSE 8.1 mph - N/A   Clear
1:55 PM 92.8 °F 33.1 °F 12% 30.13 in 7.0 mi SSE 8.1 mph - N/A   Clear
2:15 PM 93.7 °F 31.6 °F 11% 30.12 in 10.0 mi South 9.2 mph - N/A   Clear
2:35 PM 94.5 °F 30.2 °F 10% 30.11 in 7.0 mi South 9.2 mph 16.1 mph N/A   Clear
2:55 PM 95.4 °F 28.9 °F 9% 30.10 in 5.0 mi SSE 8.1 mph - N/A   Clear
3:15 PM 97.2 °F 31.5 °F 10% 30.09 in 10.0 mi WSW 8.1 mph 18.4 mph N/A   Clear
3:35 PM 96.1 °F 30.2 °F 10% 30.09 in 7.0 mi SW 13.8 mph 18.4 mph N/A   Clear
3:55 PM 97.2 °F 20.3 °F 6% 30.08 in 7.0 mi WNW 12.7 mph 19.6 mph N/A   Clear
4:15 PM 97.0 °F 22.8 °F 7% 30.08 in 10.0 mi WNW 12.7 mph - N/A   Clear
4:35 PM 97.3 °F 25.0 °F 8% 30.08 in 4.0 mi NW 12.7 mph 17.3 mph N/A   Clear
4:55 PM 97.0 °F 26.1 °F 8% 30.08 in 10.0 mi SW 4.6 mph - N/A   Clear
5:15 PM 97.0 °F 27.5 °F 8% 30.08 in 10.0 mi WNW 9.2 mph 17.3 mph N/A   Clear
5:35 PM 96.4 °F 27.7 °F 9% 30.08 in 7.0 mi WNW 8.1 mph 17.3 mph N/A   Clear
5:55 PM 96.1 °F 27.5 °F 9% 30.08 in 10.0 mi WNW 3.5 mph - N/A   Clear
6:15 PM 96.1 °F 27.5 °F 9% 30.08 in 10.0 mi West 10.4 mph - N/A   Clear
6:35 PM 95.0 °F 27.9 °F 9% 30.08 in 10.0 mi West 8.1 mph - N/A   Clear
6:55 PM 95.0 °F 27.0 °F 9% 30.08 in 10.0 mi SSW 4.6 mph - N/A   Clear
7:15 PM 92.8 °F 33.8 °F 12% 30.08 in 7.0 mi South 5.8 mph - N/A   Clear
7:35 PM 92.1 °F 34.3 °F 13% 30.08 in 10.0 mi South 4.6 mph - N/A   Clear
7:55 PM 89.4 °F 39.6 °F 17% 30.08 in 7.0 mi SSW 5.8 mph - N/A   Clear
8:15 PM 87.1 °F 38.7 °F 18% 30.09 in 10.0 mi South 4.6 mph - N/A   Clear
8:35 PM 84.9 °F 39.7 °F 20% 30.09 in 10.0 mi Calm Calm - N/A   Clear
8:55 PM 83.3 °F 40.5 °F 22% 30.10 in 7.0 mi Calm Calm - N/A   Clear
9:15 PM 81.0 °F 32.4 °F 17% 30.11 in 10.0 mi North 9.2 mph - N/A   Clear
9:35 PM 82.0 °F 29.7 °F 15% 30.12 in 10.0 mi North 4.6 mph - N/A   Clear
9:55 PM 81.7 °F 25.7 °F 13% 30.13 in 10.0 mi Calm Calm - N/A   Clear
10:35 PM 78.8 °F 28.2 °F 16% 30.15 in 10.0 mi NE 9.2 mph - N/A   Clear
10:55 PM 76.3 °F 30.2 °F 18% 30.15 in 7.0 mi ENE 8.1 mph - N/A   Clear
11:15 PM 74.3 °F 30.6 °F 20% 30.16 in 10.0 mi East 6.9 mph - N/A   Clear
11:35 PM 73.4 °F 32.0 °F 22% 30.18 in 10.0 mi East 5.8 mph - N/A   Clear
11:55 PM 73.0 °F 32.4 °F 22% 30.18 in 7.0 mi ENE 5.8 mph - N/A   Clear